QLK1813 YSSY-YSCB

Flight info

Callsign QLK1813
Flight time 0h 36m
Altitude 20000
Route TESAT H65 CB
Aircraft E190/M-SDE3GILORVW/S

Departure

Time 2026-05-04 07:26
Airport Sydney Kingsford Smith International Airport (YSSY)

Arrival

Time 2026-05-04 08:03
Airport Canberra Airport (YSCB)
Time Latitude Longitude Altitude Speed Heading
2026-05-04 06:51 -33.93171 151.17969 28 ft 0 kts 190°
2026-05-04 07:06 -33.93172 151.17969 28 ft 0 kts 190°
2026-05-04 07:08 -33.93099 151.17996 28 ft 2 kts 240°
2026-05-04 07:09 -33.93095 151.18010 28 ft 2 kts 262°
2026-05-04 07:09 -33.93095 151.18022 28 ft 0 kts 280°
2026-05-04 07:09 -33.93093 151.18004 28 ft 6 kts 280°
2026-05-04 07:09 -33.93087 151.17964 28 ft 3 kts 280°
2026-05-04 07:10 -33.93086 151.17960 28 ft 0 kts 280°
2026-05-04 07:12 -33.93084 151.17943 28 ft 4 kts 281°
2026-05-04 07:12 -33.93074 151.17880 28 ft 8 kts 279°
2026-05-04 07:12 -33.93062 151.17796 28 ft 9 kts 281°
2026-05-04 07:13 -33.93035 151.17709 28 ft 10 kts 298°
2026-05-04 07:13 -33.93009 151.17625 28 ft 10 kts 274°
2026-05-04 07:13 -33.93034 151.17541 28 ft 10 kts 205°
2026-05-04 07:14 -33.93365 151.17587 28 ft 13 kts 169°
2026-05-04 07:14 -33.93482 151.17586 28 ft 14 kts 179°
2026-05-04 07:15 -33.93603 151.17616 28 ft 14 kts 161°
2026-05-04 07:15 -33.93727 151.17680 28 ft 14 kts 164°
2026-05-04 07:15 -33.93845 151.17738 28 ft 14 kts 133°
2026-05-04 07:15 -33.93964 151.17796 28 ft 14 kts 170°
2026-05-04 07:16 -33.94104 151.17833 28 ft 15 kts 168°
2026-05-04 07:16 -33.94249 151.17870 28 ft 16 kts 168°
2026-05-04 07:16 -33.94406 151.17911 28 ft 16 kts 171°
2026-05-04 07:16 -33.94568 151.17894 28 ft 16 kts 165°
2026-05-04 07:17 -33.94684 151.17923 28 ft 17 kts 168°
2026-05-04 07:17 -33.94802 151.17955 28 ft 17 kts 167°
2026-05-04 07:17 -33.94924 151.17986 28 ft 18 kts 168°
2026-05-04 07:17 -33.95046 151.18018 28 ft 14 kts 169°
2026-05-04 07:18 -33.95106 151.18094 28 ft 13 kts 84°
2026-05-04 07:18 -33.95084 151.18207 28 ft 13 kts 77°
2026-05-04 07:18 -33.95065 151.18312 28 ft 12 kts 78°
2026-05-04 07:18 -33.95049 151.18407 28 ft 11 kts 79°
2026-05-04 07:19 -33.95045 151.18436 28 ft 0 kts 80°
2026-05-04 07:19 -33.95044 151.18445 28 ft 2 kts 86°
2026-05-04 07:19 -33.95058 151.18494 28 ft 9 kts 137°
2026-05-04 07:19 -33.95129 151.18559 28 ft 15 kts 134°
2026-05-04 07:20 -33.95212 151.18651 28 ft 16 kts 141°
2026-05-04 07:20 -33.95314 151.18718 28 ft 17 kts 160°
2026-05-04 07:20 -33.95435 151.18753 28 ft 18 kts 168°
2026-05-04 07:20 -33.95561 151.18787 28 ft 19 kts 166°
2026-05-04 07:22 -33.96698 151.19078 27 ft 25 kts 178°
2026-05-04 07:22 -33.96878 151.19081 27 ft 24 kts 166°
2026-05-04 07:23 -33.96991 151.19112 27 ft 15 kts 168°
2026-05-04 07:23 -33.97080 151.19133 28 ft 11 kts 166°
2026-05-04 07:23 -33.97133 151.19192 28 ft 11 kts 93°
2026-05-04 07:23 -33.97125 151.19246 27 ft 0 kts 76°
2026-05-04 07:24 -33.97119 151.19276 28 ft 8 kts 76°
2026-05-04 07:24 -33.97104 151.19354 27 ft 11 kts 70°
2026-05-04 07:24 -33.97034 151.19369 28 ft 10 kts 349°
2026-05-04 07:24 -33.96923 151.19339 28 ft 42 kts 349°
2026-05-04 07:25 -33.96310 151.19191 28 ft 132 kts 348°
2026-05-04 07:26 -33.96056 151.27014 4465 ft 251 kts 96°
2026-05-04 07:27 -33.96321 151.29086 4865 ft 245 kts 97°
2026-05-04 07:27 -33.96538 151.31052 4841 ft 227 kts 90°
2026-05-04 07:27 -33.96508 151.32843 4892 ft 203 kts 78°
2026-05-04 07:27 -33.96278 151.34628 5034 ft 229 kts 76°
2026-05-04 07:28 -33.96013 151.36528 5010 ft 234 kts 76°
2026-05-04 07:28 -33.95743 151.38458 4998 ft 233 kts 76°
2026-05-04 07:28 -33.95474 151.40379 4995 ft 233 kts 76°
2026-05-04 07:28 -33.95203 151.42314 4995 ft 233 kts 76°
2026-05-04 07:29 -33.94935 151.44228 4996 ft 232 kts 76°
2026-05-04 07:29 -33.94665 151.46144 4996 ft 232 kts 76°
2026-05-04 07:29 -33.94403 151.48051 4995 ft 232 kts 80°
2026-05-04 07:29 -33.94737 151.49953 5014 ft 242 kts 122°
2026-05-04 07:30 -33.96085 151.51237 5219 ft 259 kts 162°
2026-05-04 07:30 -33.97955 151.51665 5540 ft 287 kts 173°
2026-05-04 07:30 -34.00009 151.51993 6165 ft 302 kts 173°
2026-05-04 07:30 -34.02092 151.52324 7023 ft 306 kts 173°
2026-05-04 07:31 -34.04184 151.52585 8056 ft 303 kts 184°
2026-05-04 07:31 -34.06138 151.51846 9116 ft 297 kts 216°
2026-05-04 07:33 -34.15634 151.37596 14960 ft 335 kts 236°
2026-05-04 07:33 -34.17135 151.35451 15819 ft 339 kts 236°
2026-05-04 07:33 -34.18666 151.33237 16610 ft 344 kts 237°
2026-05-04 07:33 -34.20195 151.31024 17362 ft 349 kts 237°
2026-05-04 07:34 -34.21757 151.28764 18088 ft 354 kts 237°
2026-05-04 07:34 -34.23333 151.26482 18836 ft 359 kts 237°
2026-05-04 07:34 -34.24941 151.24149 19597 ft 362 kts 237°
2026-05-04 07:34 -34.26526 151.21851 19954 ft 361 kts 237°
2026-05-04 07:35 -34.28177 151.19447 20011 ft 382 kts 237°
2026-05-04 07:35 -34.29915 151.16923 20007 ft 389 kts 237°
2026-05-04 07:35 -34.31635 151.14426 19996 ft 390 kts 237°
2026-05-04 07:35 -34.33365 151.11909 19998 ft 389 kts 237°
2026-05-04 07:36 -34.35086 151.09404 19985 ft 390 kts 237°
2026-05-04 07:36 -34.36828 151.06867 20002 ft 390 kts 237°
2026-05-04 07:38 -34.48890 150.89241 19994 ft 388 kts 237°
2026-05-04 07:38 -34.50600 150.86732 19994 ft 389 kts 237°
2026-05-04 07:38 -34.52319 150.84213 20000 ft 389 kts 237°
2026-05-04 07:38 -34.54055 150.81665 19996 ft 389 kts 237°
2026-05-04 07:39 -34.55770 150.79140 19996 ft 387 kts 238°
2026-05-04 07:39 -34.57348 150.76549 20004 ft 388 kts 241°
2026-05-04 07:39 -34.58940 150.73906 20002 ft 386 kts 240°
2026-05-04 07:39 -34.60524 150.71278 20009 ft 386 kts 240°
2026-05-04 07:40 -34.62103 150.68660 20009 ft 386 kts 240°
2026-05-04 07:40 -34.63687 150.66031 20018 ft 387 kts 241°
2026-05-04 07:40 -34.65279 150.63385 20007 ft 386 kts 241°
2026-05-04 07:40 -34.66855 150.60767 20009 ft 385 kts 241°
2026-05-04 07:41 -34.68429 150.58147 20011 ft 386 kts 241°
2026-05-04 07:41 -34.70018 150.55502 20011 ft 385 kts 241°
2026-05-04 07:41 -34.71588 150.52885 20012 ft 386 kts 241°
2026-05-04 07:41 -34.73177 150.50236 20013 ft 386 kts 241°
2026-05-04 07:42 -34.74740 150.47629 20009 ft 385 kts 241°
2026-05-04 07:42 -34.76331 150.44972 20015 ft 386 kts 241°
2026-05-04 07:42 -34.77909 150.42335 20017 ft 386 kts 241°
2026-05-04 07:42 -34.79474 150.39717 20021 ft 386 kts 241°
2026-05-04 07:43 -34.81051 150.37079 20014 ft 387 kts 241°
2026-05-04 07:43 -34.82647 150.34407 20019 ft 386 kts 241°
2026-05-04 07:43 -34.84220 150.31770 20029 ft 386 kts 242°
2026-05-04 07:43 -34.85787 150.29141 20013 ft 384 kts 242°
2026-05-04 07:44 -34.87363 150.26497 20023 ft 386 kts 242°
2026-05-04 07:44 -34.88920 150.23880 20035 ft 385 kts 242°
2026-05-04 07:44 -34.90498 150.21227 20027 ft 387 kts 242°
2026-05-04 07:44 -34.92084 150.18559 20021 ft 386 kts 242°
2026-05-04 07:45 -34.93648 150.15926 20028 ft 386 kts 242°
2026-05-04 07:45 -34.95237 150.13251 20029 ft 386 kts 242°
2026-05-04 07:45 -34.96803 150.10609 20024 ft 385 kts 242°
2026-05-04 07:45 -34.98326 150.08044 20022 ft 375 kts 242°
2026-05-04 07:46 -34.99852 150.05464 20030 ft 373 kts 242°
2026-05-04 07:46 -35.01377 150.02887 20024 ft 372 kts 242°
2026-05-04 07:46 -35.02874 150.00356 19933 ft 374 kts 242°
2026-05-04 07:46 -35.04407 149.97759 19555 ft 374 kts 242°
2026-05-04 07:47 -35.05826 149.95197 19137 ft 364 kts 249°
2026-05-04 07:47 -35.07253 149.92615 18747 ft 376 kts 231°
2026-05-04 07:47 -35.09301 149.90578 18348 ft 379 kts 227°
2026-05-04 07:49 -35.21566 149.75200 15551 ft 348 kts 233°
2026-05-04 07:49 -35.23235 149.73036 15170 ft 347 kts 233°
2026-05-04 07:49 -35.24889 149.70892 14773 ft 345 kts 233°
2026-05-04 07:50 -35.26523 149.68774 14451 ft 345 kts 233°
2026-05-04 07:50 -35.28173 149.66635 14069 ft 343 kts 233°
2026-05-04 07:50 -35.29788 149.64537 13686 ft 341 kts 233°
2026-05-04 07:50 -35.31426 149.62408 13290 ft 340 kts 232°
2026-05-04 07:51 -35.33035 149.60318 12889 ft 337 kts 232°
2026-05-04 07:51 -35.34627 149.58243 12582 ft 336 kts 232°
2026-05-04 07:51 -35.36221 149.56168 12220 ft 335 kts 232°
2026-05-04 07:51 -35.37809 149.54099 11854 ft 333 kts 232°
2026-05-04 07:52 -35.39398 149.52033 11484 ft 328 kts 232°
2026-05-04 07:52 -35.40922 149.50044 11129 ft 320 kts 232°
2026-05-04 07:52 -35.42435 149.48071 10778 ft 312 kts 232°
2026-05-04 07:52 -35.43903 149.46150 10436 ft 304 kts 233°
2026-05-04 07:53 -35.45321 149.44298 10106 ft 297 kts 233°
2026-05-04 07:54 -35.54824 149.31746 7899 ft 267 kts 245°
2026-05-04 07:55 -35.55348 149.29729 7670 ft 236 kts 265°
2026-05-04 07:55 -35.55606 149.27817 7397 ft 226 kts 266°
2026-05-04 07:55 -35.55843 149.25932 7119 ft 217 kts 266°
2026-05-04 07:55 -35.56056 149.24159 6875 ft 208 kts 267°
2026-05-04 07:56 -35.56191 149.22427 6627 ft 195 kts 283°
2026-05-04 07:56 -35.55545 149.21137 6463 ft 176 kts 324°
2026-05-04 07:56 -35.54488 149.20424 6216 ft 170 kts 332°
2026-05-04 07:56 -35.53442 149.19809 5991 ft 164 kts 334°
2026-05-04 07:57 -35.52320 149.19544 5721 ft 162 kts 354°
2026-05-04 07:57 -35.51251 149.19502 5574 ft 151 kts 355°
2026-05-04 07:57 -35.50209 149.19479 5294 ft 148 kts 355°
2026-05-04 07:57 -35.49174 149.19467 5146 ft 145 kts 356°
2026-05-04 07:58 -35.48162 149.19458 5097 ft 148 kts 356°
2026-05-04 07:58 -35.47130 149.19453 4929 ft 143 kts 356°
2026-05-04 07:58 -35.46201 149.19452 4723 ft 127 kts 356°
2026-05-04 07:58 -35.45356 149.19452 4551 ft 119 kts 354°
2026-05-04 07:59 -35.44520 149.19449 4429 ft 120 kts 355°
2026-05-04 07:59 -35.43670 149.19447 4288 ft 122 kts 355°
2026-05-04 07:59 -35.42817 149.19447 4131 ft 123 kts 356°
2026-05-04 07:59 -35.41954 149.19447 3965 ft 123 kts 356°
2026-05-04 08:00 -35.41094 149.19446 3792 ft 123 kts 356°
2026-05-04 08:00 -35.40241 149.19447 3631 ft 122 kts 356°
2026-05-04 08:00 -35.39399 149.19446 3481 ft 121 kts 356°
2026-05-04 08:02 -35.33396 149.19446 2294 ft 123 kts 358°
2026-05-04 08:02 -35.32537 149.19446 2132 ft 122 kts 358°
2026-05-04 08:02 -35.31692 149.19446 1976 ft 121 kts 359°
2026-05-04 08:03 -35.30859 149.19435 1880 ft 116 kts 358°
2026-05-04 08:03 -35.30215 149.19432 1882 ft 60 kts
2026-05-04 08:03 -35.29906 149.19437 1878 ft 40 kts
2026-05-04 08:03 -35.29642 149.19432 1877 ft 26 kts 355°
2026-05-04 08:04 -35.29581 149.19330 1875 ft 12 kts 267°
2026-05-04 08:04 -35.29623 149.19249 1873 ft 13 kts 184°
2026-05-04 08:04 -35.29715 149.19247 1873 ft 13 kts 177°
2026-05-04 08:04 -35.29813 149.19249 1873 ft 14 kts 185°
2026-05-04 08:05 -35.29924 149.19246 1873 ft 17 kts 179°
2026-05-04 08:05 -35.30046 149.19249 1874 ft 17 kts 182°
2026-05-04 08:05 -35.30163 149.19232 1875 ft 16 kts 213°
2026-05-04 08:05 -35.30258 149.19139 1872 ft 18 kts 219°
2026-05-04 08:06 -35.30363 149.19032 1868 ft 17 kts 220°
2026-05-04 08:06 -35.30425 149.18993 1867 ft 10 kts 182°
2026-05-04 08:06 -35.30494 149.19005 1868 ft 7 kts 172°
2026-05-04 08:06 -35.30521 149.19011 1868 ft 4 kts 162°
2026-05-04 08:08 -35.30648 149.19060 1871 ft 0 kts 220°